This demonstration page uses our WeatherBlox Daily Observations layout. Learn more.

Left ArrowRight Arrow

Hourly Observations for March 3, 2018

Temp ( °F °C ) Dew Point ( °F °C ) Humidity (%) Winds ( mph kmh ) Pressure ( in mb ) Visibility ( mi km ) Precip ( " mm )
12:53 am 00:53 Clear 44 6.7 26 -3.3 49 49 SSE 13 20 29.99 1016 10 16 0.00 0.00
1:53 am 01:53 Clear 43 6.1 27 -2.8 53 53 SSE 16 26 29.98 1015 10 16 0.00 0.00
2:53 am 02:53 Clear 43 6.1 29 -1.7 58 58 SSE 15 24 29.96 1015 10 16 0.00 0.00
3:53 am 03:53 Clear 43 6.1 30 -1.1 60 60 S 15 24 29.94 1014 10 16 0.00 0.00
4:53 am 04:53 Clear 43 6.1 32 0 65 65 S 13 20 29.93 1014 10 16 0.00 0.00
5:53 am 05:53 Clear 42 5.6 33 0.6 71 71 SSE 14 22 29.94 1014 10 16 0.00 0.00
6:53 am 06:53 Clear 41 5 34 1.1 76 76 SSE 13 20 29.94 1014 10 16 0.00 0.00
7:53 am 07:53 Sunny 39 3.9 34 1.1 82 82 SE 9 15 29.96 1015 10 16 0.00 0.00
8:53 am 08:53 Sunny 45 7.2 38 3.3 77 77 S 12 19 29.96 1015 10 16 0.00 0.00
9:53 am 09:53 Sunny 50 10 38 3.3 63 63 S 15 24 29.95 1014 10 16 0.00 0.00
10:53 am 10:53 Sunny 54 12.2 37 2.8 53 53 SSW 18 30 29.94 1014 10 16 0.00 0.00
11:53 am 11:53 Sunny 58 14.4 38 3.3 48 48 S 18 30 29.93 1014 10 16 0.00 0.00
12:53 pm 12:53 Sunny 63 17.2 38 3.3 40 40 S 17 28 29.91 1013 10 16 0.00 0.00
1:53 pm 13:53 Sunny 67 19.4 37 2.8 33 33 S 15 24 29.88 1012 10 16 0.00 0.00
2:53 pm 14:53 Sunny 69 20.6 39 3.9 33 33 S 20 31 29.87 1011 10 16 0.00 0.00
3:53 pm 15:53 Sunny 71 21.7 38 3.3 30 30 S 17 28 29.85 1011 10 16 0.00 0.00
4:53 pm 16:53 Sunny 71 21.7 38 3.3 30 30 S 17 28 29.85 1011 10 16 0.00 0.00
5:53 pm 17:53 Sunny 68 20 39 3.9 35 35 S 13 20 29.85 1011 10 16 0.00 0.00
6:53 pm 18:53 Clear 64 17.8 41 5 43 43 SSE 14 22 29.87 1012 10 16 0.00 0.00
7:53 pm 19:53 Clear 60 15.6 43 6.1 53 53 SE 13 20 29.89 1012 10 16 0.00 0.00
8:53 pm 20:53 Clear 59 15 46 7.8 62 62 SSE 15 24 29.90 1012 10 16 0.00 0.00
9:53 pm 21:53 Clear 59 15 48 8.9 67 67 S 18 30 29.89 1012 10 16 0.00 0.00
10:53 pm 22:53 Clear 57 13.9 47 8.3 69 69 SSE 18 30 29.89 1012 10 16 0.00 0.00
11:53 pm 23:53 Clear 55 12.8 46 7.8 72 72 SSE 17 28 29.88 1012 10 16 0.00 0.00

Powered by AerisWeather